Powrót do katalogu

FENGYUN 2F AKM

AktywnyGEO
NORAD 38072·ROCKET BODY·🇨🇳 China

Wystrzelony Jan 13, 2012 z Xichang Satellite Launch Center

Loading…

TLE

ŚwieżeSource: Space-Track

Epoka: Sep 14, 2026, 10:50 UTC

1 38072U 12002C   26257.45205795 -.00000133  00000-0  00000-0 0  9992
2 38072   9.3727  56.8411 0062488 207.8579 350.1938  0.99392415 52728

Śledź FENGYUN 2F AKM w czasie rzeczywistym z AllMySat

Download on the App Store